Theta_e
343 344 343 341 342 342 345 341 343 348 347 344 344 343 339 337 332 329 329 333 335 340 342 341 349 356 356 356 358 358 360 357 357 359 360 359 361 352 344 344 343 343 343 342 342 343 343 342 342 344 345 345 346 348 347 348 349 350 350 352 353 353 354 354 354 354 354 355 355 356 358 359 361 363
342 343 341 341 341 343 346 346 346 345 346 346 346 344 343 342 336 333 329 331 338 338 344 345 345 355 356 356 357 359 359 355 358 359 360 360 361 348 344 344 343 343 342 341 340 340 340 341 341 341 341 342 344 345 345 346 346 347 347 349 350 351 351 350 351 352 353 354 355 354 356 357 358 358
343 342 340 341 340 341 344 344 345 344 343 344 346 345 345 342 341 337 335 330 337 342 340 346 349 349 356 355 355 358 360 359 358 359 360 361 354 348 350 341 341 341 340 339 339 337 337 338 339 338 338 339 340 342 343 343 343 344 345 346 347 347 347 348 348 349 350 351 353 352 353 354 355 356
341 341 340 342 343 343 342 342 343 344 345 345 344 344 344 344 344 341 337 332 332 342 342 344 349 352 353 356 355 357 359 360 354 360 360 362 353 357 359 346 340 339 338 338 338 336 335 336 337 337 337 338 340 341 341 340 340 341 343 343 344 345 344 343 344 346 347 349 349 350 351 352 353 354
340 340 340 340 342 343 342 340 341 342 345 345 344 343 344 344 345 342 337 334 334 340 345 344 345 349 352 351 355 354 355 358 362 355 360 363 362 361 362 362 346 340 337 336 336 336 335 335 335 336 337 338 339 340 341 340 339 339 338 339 340 340 341 340 340 343 344 345 346 347 348 349 350 351
337 338 339 339 338 342 341 340 340 341 343 344 342 341 342 343 340 346 340 336 335 335 343 343 347 346 349 346 353 351 351 355 360 361 361 363 364 363 363 363 364 343 339 336 334 335 335 335 335 335 336 336 337 338 338 337 336 336 336 336 336 336 335 335 337 339 340 342 344 345 346 347 348 349
337 337 336 337 338 337 337 339 340 342 343 343 342 342 342 338 340 342 342 338 336 335 337 343 343 345 347 346 347 351 352 354 357 357 358 359 360 363 364 363 363 346 340 337 335 334 334 335 335 334 335 334 334 334 333 333 333 333 333 333 334 334 334 334 335 337 338 340 342 344 344 345 346 347
334 336 336 337 337 337 337 338 341 343 342 341 342 341 341 340 340 342 344 343 339 338 336 341 342 344 344 346 349 349 350 351 351 352 351 354 357 360 363 363 362 351 338 337 336 335 334 334 334 333 332 332 331 330 331 330 331 330 330 330 331 331 331 330 332 335 334 335 338 341 342 343 343 342
333 333 335 336 335 335 331 335 339 342 341 340 341 340 337 339 340 340 341 343 343 340 338 339 343 345 346 347 348 350 347 348 350 351 353 353 356 359 361 362 363 349 335 337 335 334 334 333 333 332 332 332 330 329 328 328 328 328 328 328 328 329 329 329 328 329 330 331 333 333 335 339 342 342
334 334 333 334 336 338 334 335 339 341 340 340 339 337 338 339 340 339 340 341 343 343 338 339 339 343 343 343 345 348 349 346 346 348 351 354 355 356 356 357 359 362 362 361 359 341 338 334 332 332 333 332 330 329 327 326 325 324 323 321 321 324 325 326 328 328 327 328 330 331 332 335 337 340
331 334 335 336 336 335 335 337 339 339 340 340 339 340 337 339 338 338 338 339 338 339 339 339 340 340 342 343 341 345 349 349 347 346 347 347 351 354 354 353 357 360 360 353 345 349 349 343 345 335 330 331 330 329 327 324 322 321 319 318 317 318 318 320 323 325 325 326 327 327 327 329 335 338
329 330 333 335 337 337 337 337 339 339 339 339 336 336 340 339 339 339 339 337 337 338 338 336 337 339 338 342 344 346 347 345 344 346 345 343 345 348 353 355 354 358 359 356 357 346 343 340 337 330 331 330 329 328 328 328 326 323 320 319 321 321 318 318 319 321 321 321 321 322 323 324 329 334
328 329 331 333 336 338 332 326 327 329 329 340 339 342 343 341 341 340 339 338 336 336 336 336 338 338 339 339 340 340 340 340 340 345 346 345 347 349 348 351 355 355 355 356 355 356 358 355 354 352 350 351 339 336 331 336 334 328 323 321 323 323 321 319 318 319 319 319 319 318 320 323 326 331
327 328 330 332 329 327 324 324 321 320 320 321 333 339 340 339 339 338 337 337 337 335 334 334 335 336 336 336 339 339 341 343 345 344 345 341 344 345 345 347 350 352 352 352 352 355 358 354 353 352 350 353 353 352 351 351 348 339 329 326 325 324 323 320 319 318 318 318 318 317 317 320 324 326
324 325 329 331 330 330 328 332 320 319 318 319 319 320 324 327 339 339 337 337 336 335 334 335 336 336 335 336 340 340 341 342 342 342 343 342 343 341 339 338 347 355 352 351 352 353 357 354 349 351 351 352 352 352 352 342 337 332 329 327 326 325 323 323 322 320 317 316 316 317 316 318 321 323
323 323 325 330 333 334 335 337 338 329 319 318 319 319 320 322 322 326 339 337 337 336 334 334 335 337 336 337 340 339 340 341 343 344 344 343 341 340 339 340 342 354 355 352 350 349 356 353 349 349 350 351 352 352 344 336 335 330 328 327 327 326 324 323 324 324 322 320 319 321 321 321 322 323
322 323 323 324 328 332 325 334 337 339 339 320 316 318 318 318 320 323 324 326 339 339 337 335 336 337 338 338 339 341 342 345 342 343 341 342 342 341 341 342 345 351 353 351 348 346 351 350 347 346 351 352 353 352 338 333 332 329 328 327 327 326 325 324 324 324 323 322 321 321 321 320 321 321
324 322 322 323 324 326 328 331 333 336 339 340 335 329 330 333 328 318 319 320 321 330 338 338 336 340 342 339 342 344 346 343 341 340 339 343 341 341 342 347 348 354 352 347 346 344 346 349 347 345 350 352 353 354 344 330 329 329 326 326 324 323 323 322 322 322 322 322 320 319 318 317 317 319
322 321 322 322 321 322 323 325 320 318 324 334 337 336 332 333 335 335 334 333 335 336 337 338 340 341 343 343 344 346 347 346 346 346 345 345 345 345 346 348 348 350 351 350 345 338 345 350 346 346 348 350 352 353 338 328 328 327 324 324 323 322 321 321 322 321 320 320 319 317 316 315 314 315
324 323 323 321 319 320 321 317 311 312 317 324 331 336 337 335 335 336 328 328 331 336 339 339 339 341 342 334 345 346 345 346 347 346 348 350 349 347 343 340 342 342 347 348 344 341 344 349 343 346 349 351 350 351 350 328 326 324 322 323 322 320 318 319 320 319 319 319 318 316 314 311 311 311
325 324 323 322 321 319 320 314 310 312 311 320 327 331 333 334 335 335 337 326 322 324 324 325 327 328 327 326 326 326 328 341 342 345 342 341 343 340 337 339 340 340 344 346 345 342 341 347 346 345 350 349 347 349 350 347 324 322 319 320 319 318 317 317 317 317 318 318 317 316 315 311 310 311
324 324 323 323 322 319 317 311 310 311 314 322 327 329 331 333 334 336 336 336 333 321 322 323 325 326 326 326 326 326 326 326 332 344 338 341 341 338 339 337 339 341 344 344 346 343 341 348 348 344 347 347 346 348 347 343 333 321 318 318 318 316 316 316 315 317 317 317 317 315 313 309 310 323
324 323 323 322 319 315 312 308 309 309 311 320 325 328 330 331 332 335 338 336 335 333 331 333 334 334 329 334 337 337 324 327 332 345 342 341 340 338 337 339 340 338 339 344 350 341 342 344 346 345 342 339 344 346 347 343 343 342 341 336 332 316 317 315 313 313 313 315 315 314 309 308 315 333
324 324 323 322 315 311 308 307 306 306 308 316 322 322 324 329 332 338 340 338 336 334 333 333 335 336 338 338 339 340 336 334 341 343 342 340 343 338 340 340 339 335 339 348 349 343 345 347 343 345 343 337 334 339 342 344 342 341 343 341 339 319 318 315 313 309 311 312 312 311 309 308 315 335
323 323 323 323 317 310 307 306 305 305 307 310 321 319 317 318 321 329 338 335 326 336 335 334 335 336 336 337 338 340 337 336 339 341 343 345 346 343 342 340 339 338 342 351 342 348 347 347 344 344 344 343 340 339 340 342 341 341 343 344 343 337 335 334 330 330 310 307 308 307 306 309 312 328
325 324 323 323 318 310 307 305 304 305 308 311 320 315 308 310 315 329 337 337 336 336 335 335 334 334 334 335 336 338 338 338 339 341 344 343 345 347 346 344 342 338 344 352 335 350 349 343 346 342 343 341 339 341 337 338 340 340 342 344 344 342 341 339 337 336 336 335 329 316 315 309 313 315
326 326 324 323 316 308 303 303 305 307 309 312 314 306 309 312 316 327 335 336 335 338 337 334 333 333 334 334 334 336 336 338 340 343 343 344 346 347 348 350 349 348 353 348 348 352 350 345 348 344 343 343 338 339 338 336 337 339 338 339 341 342 341 340 338 338 337 334 331 307 308 307 310 313
327 325 324 319 308 303 300 303 307 310 311 315 306 308 312 315 318 326 329 332 335 333 332 332 332 333 335 336 336 336 338 339 341 341 345 346 346 347 348 350 350 346 345 345 345 349 349 348 346 349 349 344 341 337 335 341 341 339 337 339 339 339 338 339 339 339 336 334 328 325 325 322 320 321
326 316 308 305 305 306 306 308 312 316 315 312 311 311 314 320 323 323 324 325 327 330 332 331 333 334 336 338 338 340 341 343 342 339 341 341 343 347 346 341 341 340 342 344 345 347 348 347 346 347 349 349 343 342 340 339 339 338 338 337 336 338 338 339 339 338 337 335 332 330 331 330 325 326
314 312 311 311 313 315 318 323 326 324 324 317 317 317 319 325 324 323 322 322 322 321 323 328 327 329 334 336 338 339 339 338 337 338 336 338 337 339 338 334 337 341 344 344 344 344 346 348 348 346 344 345 347 344 342 339 337 339 339 338 340 339 338 338 338 338 336 335 334 333 335 336 331 329
324 325 323 323 315 314 316 319 320 320 323 326 325 325 325 325 325 323 322 322 322 322 322 323 325 327 329 332 332 332 334 333 336 339 339 339 338 338 338 336 334 336 337 341 345 345 345 346 346 344 340 339 339 345 345 345 342 339 338 340 340 336 339 339 338 337 337 337 337 335 335 335 335 333
321 326 321 323 331 330 329 329 329 329 328 327 327 327 326 326 326 326 324 323 326 325 323 322 324 324 325 325 326 328 329 330 333 337 338 337 334 336 336 334 332 332 332 336 338 338 340 342 341 341 341 339 336 335 338 341 341 342 341 341 341 344 340 338 337 338 339 337 335 335 335 336 335 334
322 329 327 325 324 324 325 325 326 326 326 327 327 326 326 327 326 324 323 321 321 324 322 321 320 320 322 323 324 325 326 327 330 334 334 334 332 332 333 331 330 330 331 331 332 333 337 340 341 339 339 339 338 337 334 331 333 335 338 338 340 341 342 341 339 338 337 335 334 335 335 337 338 337
319 324 323 322 322 322 323 322 323 324 324 325 326 326 323 326 326 325 324 323 323 324 323 322 321 321 322 322 323 323 323 325 327 327 326 330 331 329 328 326 325 325 326 325 327 331 335 338 338 337 339 339 339 339 338 333 330 332 333 335 334 336 341 341 340 338 336 336 335 334 334 334 337 338
323 322 321 321 322 322 321 320 320 322 324 324 325 325 326 326 326 325 325 325 325 323 322 322 323 324 323 323 323 322 323 323 325 327 329 330 330 327 326 324 324 325 325 325 325 328 333 334 335 333 333 334 334 333 329 334 336 333 334 335 336 337 337 341 338 336 336 337 338 334 335 337 337 338
322 322 320 319 318 319 318 318 320 321 322 324 325 325 325 325 325 326 325 325 327 325 325 324 323 323 323 323 322 322 322 322 323 325 326 327 326 325 324 323 322 322 323 322 323 326 329 331 334 332 330 330 329 327 330 326 329 338 333 335 336 337 337 339 339 338 337 336 336 336 336 337 338 338
317 316 315 313 313 314 314 314 316 318 319 321 323 324 324 323 324 326 326 329 328 326 325 326 324 324 324 323 322 321 322 323 324 325 325 325 325 324 323 323 323 322 321 322 324 327 329 327 329 329 329 327 326 323 323 329 321 321 341 338 335 335 335 338 337 336 337 336 334 336 337 339 338 339
310 310 309 308 308 309 309 310 310 310 312 315 316 318 320 322 324 325 327 328 327 327 327 326 326 326 327 325 325 323 323 324 324 323 324 325 323 323 323 323 323 322 323 325 324 326 330 328 325 326 328 324 320 321 323 329 327 323 311 333 339 336 338 338 335 333 334 337 335 336 337 335 334 337
307 307 306 305 305 305 306 306 307 307 308 309 310 310 311 312 313 314 316 320 324 326 326 326 324 324 325 326 325 325 324 324 323 322 323 323 324 322 322 322 321 323 323 321 323 324 325 325 326 326 326 324 324 323 321 321 321 323 315 304 328 335 335 336 335 333 333 333 335 335 336 338 333 324
305 305 304 304 304 304 304 304 304 305 305 306 307 307 307 307 308 308 308 310 313 317 323 323 322 320 324 324 324 325 325 324 323 323 323 321 322 323 322 322 322 322 321 321 321 323 325 325 326 325 326 327 326 327 327 327 326 325 325 318 302 319 335 337 334 335 332 333 332 329 329 333 334 337
304 303 302 302 302 302 302 302 302 303 303 303 304 303 305 305 305 305 306 306 309 308 309 311 317 321 321 321 323 323 322 321 322 322 323 322 321 323 322 320 321 323 321 321 323 323 324 328 328 322 327 325 325 326 326 323 323 324 328 325 310 304 304 311 334 337 334 337 338 335 333 332 331 332
302 301 300 300 299 300 300 299 299 300 301 302 302 302 303 303 303 302 305 306 307 307 307 308 311 312 314 317 318 320 321 321 322 322 321 323 324 322 321 323 322 321 322 319 321 322 326 327 329 327 325 325 324 322 318 320 319 321 323 325 327 313 307 305 306 311 334 335 332 329 328 327 328 326
300 300 299 299 298 298 297 297 297 298 298 299 301 302 301 301 302 302 302 303 304 305 306 307 309 310 311 312 316 320 320 320 320 321 321 321 321 323 323 323 325 323 322 322 324 325 324 324 327 324 322 322 322 320 316 318 321 320 319 320 319 321 322 310 307 311 315 313 313 321 328 329 324 319
297 297 298 298 297 297 297 297 296 296 296 297 298 299 299 300 300 300 300 301 302 303 305 306 307 308 310 312 313 315 315 316 319 320 321 321 321 321 322 323 323 324 323 324 322 323 324 323 324 324 320 319 321 318 317 319 318 319 320 319 320 322 320 321 320 313 313 314 312 311 310 310 313 314
297 296 296 297 297 297 296 297 296 296 295 295 295 295 297 297 297 298 298 299 299 300 303 306 306 307 308 310 311 311 312 309 313 320 321 322 322 321 320 320 320 320 320 320 318 320 322 323 324 324 322 322 321 319 319 318 319 318 320 320 319 320 320 321 320 320 320 322 311 307 308 310 313 312
Wind_Speed
14 11 12 12 11 13 12 12 14 11 11 12 11 11 14 14 14 13 13 12 12 11 12 11 8 11 10 9 9 9 10 11 11 10 10 11 11 12 16 17 17 17 17 17 17 18 18 18 18 18 18 18 19 19 18 18 18 18 18 17 17 17 16 16 16 16 16 16 17 17 16 16 16 17
12 12 10 12 11 13 13 11 12 11 10 12 12 12 12 11 12 14 15 14 10 10 10 11 8 7 9 9 9 9 9 11 11 10 10 11 11 13 13 14 15 16 16 16 16 16 16 16 16 16 17 17 18 18 18 17 17 17 18 17 17 16 16 16 16 16 16 17 17 17 16 16 16 16
12 13 14 13 13 14 13 12 12 13 11 12 12 12 11 10 10 12 11 13 12 10 11 10 10 8 8 8 8 7 7 8 10 10 10 11 13 11 10 12 13 13 14 14 15 15 16 15 15 15 15 16 16 17 17 17 17 17 17 17 16 16 16 16 15 16 17 17 17 18 17 17 17 17
12 14 15 15 13 13 10 11 13 13 13 13 13 12 12 13 13 11 10 12 17 10 11 10 9 9 9 8 8 8 7 6 8 9 9 10 10 8 9 11 13 13 14 14 14 15 15 15 15 15 15 15 15 16 16 16 16 16 16 16 15 15 15 15 15 15 16 16 17 18 17 17 17 17
13 15 16 16 16 15 13 11 13 14 14 13 13 12 12 13 11 11 12 12 17 13 11 11 10 9 9 10 9 9 9 8 6 8 9 10 9 8 7 7 12 15 15 15 15 15 15 15 15 15 15 15 15 15 15 15 15 15 15 15 15 15 15 15 14 14 15 15 16 17 16 16 16 16
12 12 14 14 17 17 17 14 15 15 14 13 14 13 13 13 13 11 11 12 13 16 11 11 11 11 11 11 9 10 10 10 8 7 7 8 8 7 6 7 7 15 15 16 15 15 15 15 15 15 15 15 15 15 15 14 14 14 14 14 14 14 14 14 14 14 15 15 16 17 16 16 16 16
14 14 15 16 16 15 18 17 16 16 15 14 14 14 13 15 14 13 13 11 12 16 15 12 11 11 11 12 12 12 10 10 9 9 9 8 7 6 7 7 6 12 14 15 15 15 15 14 14 14 15 14 14 14 15 14 14 13 13 13 13 14 14 15 15 16 17 17 18 18 17 16 16 16
15 16 16 15 16 15 17 16 14 15 16 15 13 14 14 14 16 14 13 14 13 12 14 12 12 11 11 11 11 11 11 10 10 10 10 10 10 9 8 8 8 9 14 13 14 14 13 13 13 13 13 13 14 14 14 14 13 13 13 13 14 15 15 15 16 16 17 17 17 17 17 17 17 17
14 16 16 16 16 13 16 18 15 14 15 15 13 14 15 15 14 13 13 14 13 12 14 12 11 10 10 10 10 10 11 11 11 12 11 9 10 9 9 8 7 5 11 11 12 12 12 12 13 13 13 13 13 13 13 13 13 13 13 14 14 15 15 15 15 15 16 15 15 15 15 16 17 17
14 14 15 15 15 14 15 16 16 15 16 14 15 18 16 15 14 15 15 14 12 13 14 12 12 11 11 11 10 10 11 11 10 10 10 9 9 10 10 10 7 6 5 5 7 9 10 12 14 12 12 13 13 13 13 13 13 13 13 14 14 14 14 14 14 15 15 15 15 15 15 15 16 16
16 16 15 14 15 15 15 17 17 17 16 14 15 16 16 17 15 14 15 14 15 13 13 13 13 13 12 11 11 11 11 12 11 9 9 10 9 9 10 10 8 7 6 7 8 8 7 4 5 9 12 13 13 13 13 13 13 13 13 13 13 13 13 13 14 14 15 15 16 15 14 14 14 15
16 16 17 17 16 16 16 17 18 16 13 12 15 18 15 14 14 13 13 14 13 12 13 14 13 13 14 11 10 9 10 11 11 10 10 10 9 9 8 10 9 7 7 7 6 8 8 8 9 9 10 11 12 12 12 13 13 13 13 12 12 12 13 13 14 14 15 15 14 14 13 13 13 15
17 17 16 16 16 16 17 18 16 15 13 13 15 13 12 14 14 13 12 12 13 13 13 13 12 12 11 12 11 12 12 11 13 9 9 9 9 8 9 9 9 8 8 7 7 7 6 6 5 6 7 8 10 11 13 11 12 13 13 13 11 12 12 13 13 13 13 13 12 12 12 13 14 14
15 16 17 16 19 17 16 16 18 18 18 16 15 12 12 14 12 14 14 13 13 14 14 14 14 14 14 14 13 12 13 12 11 11 11 11 10 9 10 9 8 9 9 8 8 7 5 5 5 6 8 7 8 8 8 10 11 11 12 11 11 12 12 12 13 13 12 12 12 12 13 13 13 13
15 16 16 15 15 16 16 17 18 18 18 18 19 21 20 16 16 17 16 15 17 14 15 14 14 14 16 16 13 13 14 13 13 12 11 12 10 10 10 10 7 9 9 9 7 6 5 5 6 7 8 8 8 8 10 9 9 9 8 9 10 10 10 11 11 11 11 11 11 11 11 12 12 12
13 14 14 12 11 11 13 15 15 17 20 21 21 23 23 23 20 19 16 16 16 17 16 16 16 15 16 14 13 13 14 13 12 12 12 12 11 11 11 8 9 4 8 8 6 5 4 5 7 7 7 8 8 9 7 8 9 8 9 9 9 8 9 10 10 9 9 9 9 9 10 12 12 13
12 12 12 11 9 8 12 14 17 16 15 19 24 23 24 23 23 20 21 20 18 16 16 17 16 16 14 15 14 13 14 12 12 11 12 11 11 10 9 10 9 7 6 7 6 6 5 6 7 8 7 7 7 7 7 9 9 9 9 9 8 8 9 10 10 9 9 8 9 9 11 11 12 12
10 11 12 11 11 12 12 11 13 15 17 15 15 17 17 17 20 21 22 23 23 21 19 17 18 16 14 14 12 14 13 14 11 12 13 11 11 11 12 11 9 4 7 8 6 6 6 7 8 9 7 6 6 7 6 11 10 10 9 8 7 7 8 8 9 9 9 9 10 11 11 11 12 12
10 11 11 11 12 13 13 10 12 13 13 14 15 15 17 18 22 21 19 17 16 15 19 20 18 16 15 14 14 12 12 13 11 11 12 12 12 11 9 8 7 6 8 8 7 9 5 6 8 8 6 6 6 7 6 9 8 9 8 7 6 7 6 7 8 8 9 9 10 11 11 11 11 12
7 8 9 9 11 11 13 14 16 16 12 11 13 14 13 16 21 22 22 24 21 21 20 20 21 18 17 15 14 13 12 11 11 9 9 8 8 8 9 10 9 10 9 10 10 8 7 7 8 7 6 5 5 4 6 7 8 7 7 6 6 6 5 6 6 7 7 8 8 8 10 10 11 11
7 8 9 9 9 12 14 16 19 18 18 10 12 14 16 17 18 19 18 21 24 24 23 22 22 20 16 15 14 13 14 11 11 9 10 11 10 10 10 9 9 10 8 9 11 9 9 8 7 7 4 5 6 5 5 4 5 6 7 7 6 6 6 6 6 6 6 6 7 7 8 8 9 8
7 8 14 14 10 11 13 18 19 19 18 11 10 13 15 17 16 15 15 14 16 25 25 23 20 17 13 14 15 15 15 15 11 12 13 11 10 11 10 10 10 8 8 9 10 9 10 7 7 6 4 3 5 5 5 4 4 5 5 5 4 5 5 6 6 6 6 6 7 7 8 7 8 6
6 7 8 12 12 11 14 18 18 18 14 11 9 9 11 15 17 16 13 14 17 16 14 15 15 15 13 13 11 12 17 16 15 13 13 12 12 11 12 11 9 8 9 9 11 10 9 8 7 7 6 7 5 4 4 5 5 5 5 4 3 4 4 4 4 5 7 6 7 8 8 9 9 6
8 7 7 9 11 15 17 17 17 18 17 12 9 8 8 9 14 14 12 18 17 17 14 13 13 14 12 11 11 11 10 10 13 14 14 14 13 13 13 11 10 10 6 8 14 11 8 9 8 9 8 7 6 5 5 5 5 5 6 6 5 4 4 5 3 2 2 4 7 8 9 10 9 6
8 8 8 7 10 15 17 17 17 15 16 15 11 11 9 7 10 11 12 14 17 12 14 14 13 14 13 12 11 11 9 9 10 13 12 13 13 13 12 11 11 10 7 8 15 11 8 8 8 8 8 7 4 4 5 6 5 6 6 6 6 5 4 4 4 3 3 1 3 7 9 11 10 7
6 7 8 7 10 15 17 17 17 16 17 18 10 13 17 17 14 9 7 10 12 12 15 13 14 13 12 13 12 11 11 10 11 11 11 13 14 12 12 11 10 9 8 8 14 11 7 8 8 8 7 7 6 5 5 5 5 6 5 6 6 6 6 5 5 5 4 4 3 5 7 11 10 9
8 7 7 8 11 15 17 17 17 16 17 13 14 20 19 19 19 11 5 4 13 9 11 12 13 13 12 12 12 12 11 10 11 10 12 14 12 11 10 10 8 5 3 9 13 10 6 6 8 9 9 7 7 6 6 7 6 6 5 5 5 5 5 5 6 5 4 4 3 6 5 4 6 6
8 8 8 10 15 15 15 16 16 15 13 12 16 18 19 18 15 8 7 4 3 10 11 12 12 13 13 12 12 11 10 10 12 10 9 9 10 8 7 4 1 5 3 3 7 9 7 6 7 9 8 8 8 8 7 6 6 8 7 5 5 5 5 5 5 5 5 4 3 4 4 4 4 4
8 11 14 14 14 14 14 14 13 10 11 15 15 17 18 15 10 10 8 7 6 4 2 7 10 13 12 12 11 10 11 7 7 8 7 6 6 6 4 3 2 4 5 7 8 8 7 7 6 7 7 8 8 7 7 6 6 7 8 7 6 6 6 6 6 6 5 5 4 4 4 5 5 5
12 12 13 13 11 10 10 8 6 6 8 11 12 14 14 10 10 10 10 10 10 9 8 3 3 3 6 9 8 8 7 7 8 7 7 5 5 7 7 6 4 3 3 4 6 6 7 7 6 6 5 6 6 6 6 6 7 7 8 8 6 5 5 6 6 6 6 6 5 5 4 5 6 7
7 9 9 7 9 7 10 8 7 6 8 7 7 6 7 8 8 9 9 9 10 11 10 8 6 5 5 7 7 5 6 6 5 5 6 8 8 8 7 6 6 4 3 3 4 4 6 6 6 6 6 5 6 4 3 4 6 8 7 7 7 6 7 8 7 6 6 6 6 5 5 5 5 6
9 7 7 6 4 4 5 5 5 5 5 6 6 6 7 7 7 9 12 10 9 10 9 8 7 9 9 8 7 7 6 5 3 4 4 3 5 5 6 7 5 4 3 3 3 3 3 2 4 3 1 4 2 3 4 3 3 5 6 6 6 3 6 7 7 7 7 7 6 6 6 6 6 6
8 6 5 6 7 6 6 6 6 6 6 6 6 8 8 7 8 8 8 9 11 10 8 9 9 10 9 9 8 7 7 5 4 4 5 5 5 4 3 3 5 5 6 5 3 4 4 2 3 2 4 4 3 3 3 2 2 5 3 4 5 5 5 5 6 7 8 7 6 6 6 6 6 6
6 6 6 6 7 7 7 7 7 7 6 7 7 7 6 6 7 7 7 7 8 9 9 8 8 8 8 8 8 8 7 5 4 4 3 4 4 6 4 4 4 4 3 4 3 3 4 4 5 4 2 3 4 2 3 4 3 3 3 3 1 3 2 4 5 7 8 6 6 6 5 5 6 6
4 7 7 7 7 8 7 7 7 6 6 6 6 7 6 6 7 6 6 7 7 7 8 8 7 6 6 6 6 7 6 6 5 4 4 6 6 6 6 6 5 4 4 4 3 2 1 5 6 6 4 4 4 4 6 3 2 4 2 4 5 5 4 4 6 5 6 5 5 5 4 4 5 6
6 7 7 8 8 8 8 9 8 7 7 7 7 6 6 6 6 6 6 6 6 6 6 6 6 6 6 5 6 6 6 6 5 5 6 6 6 7 6 6 6 5 3 5 7 6 4 3 2 4 5 4 3 3 2 6 6 3 5 4 3 2 2 3 5 6 6 6 5 5 4 4 4 6
7 8 8 8 8 9 9 9 9 9 8 8 7 7 7 7 6 6 6 5 6 6 5 5 5 5 5 4 4 4 5 5 5 6 6 6 5 6 7 5 5 5 7 6 6 5 4 5 4 3 3 3 3 2 2 1 6 8 1 2 3 4 4 4 4 4 5 5 5 6 5 4 3 4
8 8 8 8 9 9 8 9 9 9 9 9 8 7 7 7 7 7 8 6 6 5 6 6 5 5 5 5 6 5 5 4 4 5 5 4 5 5 4 5 4 5 5 5 5 5 4 5 5 4 2 3 3 3 2 2 1 5 8 4 2 3 2 3 4 4 4 5 5 4 3 3 3 3
9 9 9 9 9 9 9 9 9 9 9 9 9 9 8 8 8 8 8 7 8 6 6 5 5 6 6 5 4 4 4 4 5 4 5 5 4 4 4 4 5 3 5 5 4 4 4 4 3 2 3 2 2 3 2 2 2 3 5 8 4 3 3 0 1 2 1 2 1 1 2 4 6 6
8 8 8 8 9 9 9 9 9 9 9 10 9 9 9 9 9 8 9 9 8 7 6 7 8 7 7 6 4 4 4 4 3 2 3 3 4 4 3 3 3 4 4 4 4 2 2 3 3 2 2 3 4 3 3 3 1 1 2 7 10 5 2 1 1 2 3 4 4 5 4 2 3 3
8 8 9 8 8 9 9 9 9 9 9 9 9 9 9 9 9 9 9 9 8 8 8 8 8 8 7 7 5 5 5 5 4 3 3 2 2 2 3 3 3 2 4 3 2 2 2 0 3 5 5 4 3 2 2 1 1 1 3 3 6 8 7 6 2 0 1 1 1 1 1 2 2 3
8 8 8 8 9 9 9 9 9 9 9 9 9 9 8 8 8 11 9 11 10 9 8 8 9 8 8 8 8 6 6 4 4 4 3 3 1 2 2 2 2 1 2 4 4 4 1 2 3 3 3 3 2 2 1 1 2 1 0 2 2 4 6 5 5 4 2 3 3 3 3 2 1 1
8 8 8 8 8 8 8 9 9 9 9 9 9 9 8 8 8 10 9 10 9 9 9 8 8 9 9 9 8 8 7 5 5 5 5 3 2 2 2 3 3 4 4 2 2 1 2 2 2 3 2 3 3 3 1 2 1 2 2 2 2 1 2 4 5 4 4 7 6 3 1 1 1 1
8 8 8 8 8 8 8 9 9 9 9 9 9 9 9 9 9 10 9 9 9 9 9 8 8 8 9 9 8 7 8 7 6 5 4 4 3 3 3 1 1 1 1 0 3 2 2 4 5 5 5 5 4 4 3 4 3 3 3 4 3 3 3 3 4 3 2 2 2 1 2 3 1 1
7 8 8 8 8 8 8 8 8 9 9 9 9 10 9 9 10 9 10 10 10 10 9 9 9 8 8 8 8 9 9 9 8 8 7 5 3 1 1 0 2 1 1 3 4 4 2 4 4 5 5 4 4 4 4 4 4 4 4 4 4 3 3 2 3 4 4 4 3 5 7 3 2 0
Wind_Direction
247 243 235 237 241 247 238 237 244 239 239 239 236 237 245 248 253 256 254 248 252 241 233 243 228 219 223 225 224 226 227 233 229 233 231 233 235 225 214 220 223 226 229 232 234 235 236 238 239 240 241 242 243 244 244 245 246 248 248 247 247 247 247 248 249 248 245 242 241 240 239 238 240 242
250 244 233 239 236 241 237 231 233 232 232 235 234 237 239 237 240 248 254 255 243 252 239 234 239 212 221 221 224 226 230 231 224 236 235 232 232 227 213 216 221 225 229 232 234 235 237 237 238 238 239 241 242 243 244 244 244 246 247 247 247 246 245 245 245 247 247 245 244 241 237 236 237 238
252 248 245 242 241 246 244 240 234 229 225 229 232 233 231 229 221 238 248 259 253 246 250 241 242 238 220 222 228 222 229 226 221 231 236 236 234 226 217 215 221 225 229 233 234 236 236 238 239 239 239 240 241 242 244 244 244 244 245 246 246 244 243 241 241 242 244 243 243 240 236 233 233 234
260 255 251 245 241 235 234 234 236 232 223 223 228 229 229 229 226 221 236 244 255 235 248 252 250 238 240 228 227 229 230 229 203 232 234 240 234 223 234 210 216 222 227 230 233 235 236 236 236 237 237 238 240 241 241 242 243 243 244 245 245 245 244 243 243 243 243 244 243 243 239 234 232 232
264 262 257 254 249 244 233 230 233 234 228 223 226 229 230 229 218 210 227 238 251 254 247 252 251 249 244 242 227 232 233 236 227 220 239 243 237 226 222 224 203 214 220 226 229 232 235 235 235 234 234 235 237 240 242 243 243 244 243 242 241 241 242 242 242 242 243 244 245 246 244 237 233 231
272 263 261 251 254 248 242 236 233 231 229 227 229 226 227 230 230 210 213 233 244 252 246 243 241 246 241 250 234 234 234 235 227 221 225 232 233 225 219 218 209 196 212 218 222 228 231 233 235 237 237 238 238 238 241 243 244 244 243 242 242 241 241 240 239 238 238 240 241 242 241 238 233 232
275 264 258 257 253 252 247 238 235 233 230 230 230 229 227 234 231 225 218 222 233 243 249 247 248 242 235 238 243 235 233 237 231 229 230 236 236 229 227 221 228 181 202 208 217 222 225 228 229 231 234 238 238 238 238 239 242 242 242 242 241 240 239 238 237 237 238 238 238 237 236 235 232 231
282 273 267 262 257 249 250 241 231 227 231 231 230 231 232 234 234 228 219 218 228 237 245 239 242 240 242 237 238 243 240 239 243 247 254 254 251 242 226 229 233 187 189 201 210 215 220 225 229 231 235 236 237 238 237 235 235 237 240 242 243 243 242 240 239 239 239 240 241 239 236 232 231 231
279 275 273 267 262 248 244 243 234 224 220 227 226 231 235 233 232 230 228 223 219 228 238 244 241 242 241 240 239 234 238 239 242 246 241 242 245 239 236 234 228 199 183 202 212 218 223 229 232 236 237 236 236 237 236 234 233 233 237 241 244 245 245 244 242 241 241 241 242 243 242 238 233 230
279 274 271 266 259 246 244 244 238 233 224 221 225 232 230 230 229 230 229 228 222 219 234 239 243 233 236 238 236 232 233 238 240 243 238 237 239 240 239 236 235 231 219 218 209 214 226 230 234 239 240 240 238 238 237 236 234 234 235 238 242 244 244 244 244 242 240 238 238 238 238 239 237 235
287 280 272 262 254 252 243 241 239 233 226 222 226 228 228 229 229 229 230 227 230 228 230 236 238 242 237 234 237 229 226 234 234 237 238 238 230 234 239 243 239 232 228 227 224 240 253 246 234 218 225 236 238 237 235 233 230 232 233 237 241 243 245 245 244 243 239 236 235 234 234 236 236 237
291 286 280 271 261 253 246 241 242 237 232 229 230 232 225 226 225 224 225 228 227 227 229 234 235 233 239 234 233 235 227 227 230 231 239 244 239 234 229 235 238 229 232 240 230 209 222 237 243 253 247 236 233 231 232 232 233 231 233 234 238 241 242 242 242 241 240 238 235 233 230 228 228 230
296 288 278 273 264 256 247 239 242 242 235 233 230 220 214 221 221 220 224 227 228 228 229 233 235 236 231 232 232 228 222 222 231 226 225 237 242 245 245 242 239 242 237 234 237 236 226 224 231 248 251 242 223 227 223 237 229 230 232 232 233 239 240 240 237 236 236 237 236 232 227 224 224 225
309 302 287 272 266 261 253 238 232 232 231 228 233 234 221 222 223 225 221 221 221 225 227 228 228 228 230 230 227 228 225 225 224 226 227 236 239 244 250 252 244 239 237 234 230 232 215 223 237 238 246 247 227 242 224 233 233 225 222 225 229 233 239 238 234 231 227 226 225 224 222 223 224 223
320 316 299 276 263 253 246 243 235 231 225 224 225 229 237 235 226 221 221 224 224 220 226 227 227 229 230 228 224 225 227 218 219 224 225 232 229 231 238 244 238 220 224 228 230 233 211 213 235 239 240 243 242 237 238 223 211 224 219 223 230 236 239 240 235 230 226 223 223 222 222 224 226 223
321 322 323 306 271 261 261 261 244 228 224 224 223 226 228 231 232 231 226 226 224 224 225 224 224 224 225 225 219 222 223 217 215 219 222 224 227 228 230 234 245 196 195 212 210 226 197 208 232 241 241 241 240 240 238 193 207 203 218 226 230 233 237 238 237 232 227 226 225 223 220 220 221 220
324 325 329 337 328 308 283 261 255 258 241 218 224 224 226 229 229 230 231 231 233 226 222 225 224 223 223 222 221 218 222 212 211 210 217 219 225 227 231 234 238 214 194 206 212 229 205 208 224 242 238 240 237 231 206 203 199 208 214 219 219 223 230 233 232 230 229 225 221 222 222 221 219 216
322 329 337 336 333 329 325 312 297 276 254 243 224 221 225 227 227 227 227 226 227 230 232 227 227 224 219 222 218 218 213 209 206 210 218 213 221 221 226 232 239 217 183 215 223 234 224 214 228 241 240 235 231 237 214 187 207 208 207 206 207 211 221 225 225 226 223 218 215 216 216 214 211 208
320 336 336 334 330 328 326 322 326 316 300 267 239 222 217 220 229 226 221 220 219 216 228 234 232 228 221 223 222 218 211 213 208 209 215 212 212 219 229 244 236 221 191 217 222 240 227 207 224 241 241 236 227 238 165 181 196 204 197 196 196 207 213 215 220 220 214 212 211 210 208 205 202 200
319 319 314 325 329 326 328 330 324 316 302 279 262 241 226 222 226 229 224 219 215 221 221 225 230 230 226 220 220 218 218 212 210 214 222 214 204 203 214 225 215 221 209 211 217 232 238 222 229 234 229 218 230 212 239 162 194 187 180 172 183 185 187 200 208 205 201 199 199 201 201 196 193 194
311 308 313 325 327 329 333 332 330 326 321 270 253 250 243 237 225 225 227 214 213 215 220 223 225 229 223 207 201 201 204 209 209 208 216 220 211 217 221 219 219 222 199 198 213 226 238 220 220 232 180 210 226 215 214 196 171 173 157 162 168 172 178 191 188 187 186 179 175 181 190 191 188 177
304 305 316 319 323 326 327 330 331 334 335 300 255 243 245 241 239 229 219 216 212 211 214 216 221 221 212 196 192 194 195 197 193 209 216 210 208 215 215 217 218 214 208 206 197 217 231 213 211 221 188 197 227 216 191 179 140 139 134 128 150 160 173 186 181 177 182 170 164 169 176 163 149 155
293 302 308 312 318 324 323 325 331 334 342 331 332 303 251 241 239 234 205 206 211 203 201 212 210 218 214 204 194 197 194 190 194 204 213 219 213 209 214 218 211 214 219 202 175 210 219 213 202 210 199 227 197 208 189 178 180 172 169 158 147 140 163 173 197 192 174 175 167 161 161 156 164 163
307 306 310 310 315 330 326 325 332 333 343 343 330 349 333 283 248 233 214 207 207 201 188 194 197 208 202 208 205 201 190 191 198 206 214 222 220 216 217 215 210 215 208 165 175 206 214 204 201 203 221 229 215 164 187 177 177 178 176 162 173 139 137 131 139 183 240 176 167 162 163 168 176 166
310 314 312 309 317 325 324 325 327 326 342 344 343 357 337 319 305 284 207 196 187 191 189 195 198 201 205 204 201 200 188 183 197 211 217 226 219 218 219 216 209 218 209 162 176 202 205 189 193 194 218 223 225 171 184 185 180 187 186 185 182 161 168 170 162 172 146 168 153 165 173 178 195 187
308 310 305 307 311 317 318 320 322 331 344 349 358 347 340 344 346 317 229 186 190 197 193 195 198 197 196 198 198 199 189 187 191 204 209 219 227 222 225 220 217 212 194 172 177 200 187 184 185 189 198 199 204 188 165 191 181 184 178 196 199 174 186 178 175 168 176 173 181 177 187 188 198 215
311 304 301 300 306 316 314 314 321 331 343 360 353 347 349 351 351 338 304 240 188 184 186 188 192 193 194 196 197 191 188 189 194 200 206 212 216 224 226 225 235 241 148 167 188 203 195 196 191 194 190 197 202 192 208 198 180 168 166 182 193 179 182 193 189 186 171 171 137 99 125 182 225 239
305 306 307 306 304 306 308 310 319 326 344 353 349 351 350 354 356 357 344 321 218 197 184 184 189 191 191 196 192 191 189 190 195 199 204 208 210 207 214 222 244 40 69 129 197 205 205 204 192 198 199 189 191 194 203 204 173 173 184 171 180 180 174 187 196 186 159 150 145 155 156 159 177 199
305 298 294 294 298 304 305 308 308 323 340 349 350 353 353 357 9 6 3 14 16 10 129 184 186 185 187 190 185 175 182 181 180 194 196 193 200 185 181 50 356 232 232 192 198 204 209 210 201 192 200 198 205 198 205 189 175 184 188 174 190 195 182 188 198 187 172 161 160 161 171 157 155 183
295 296 301 300 304 309 315 319 328 335 332 333 349 358 1 6 8 9 7 15 33 35 8 13 49 61 148 163 158 152 158 175 190 176 176 172 172 165 154 166 212 151 211 200 199 204 208 211 211 195 198 218 225 205 199 183 177 176 179 194 187 156 188 186 188 187 173 169 158 164 159 159 153 171
322 313 310 309 301 295 306 312 313 312 324 342 358 4 5 13 13 11 12 13 30 39 41 8 22 35 42 74 85 99 124 134 140 177 175 168 172 167 158 160 152 158 168 211 206 206 216 214 213 201 196 193 221 234 197 194 178 166 175 199 185 195 175 178 181 181 180 173 168 153 153 150 152 178
303 299 302 303 328 353 358 343 358 2 357 352 351 353 357 13 19 16 10 8 25 32 45 43 26 49 43 50 61 77 74 75 95 144 148 143 142 138 153 165 157 138 147 161 157 80 11 118 118 85 105 137 137 50 14 327 241 169 170 185 201 165 144 173 174 176 169 163 170 179 172 173 165 173
290 310 336 358 356 4 2 360 355 359 2 3 359 9 3 4 17 20 24 18 24 29 26 41 37 37 46 46 43 52 60 55 54 84 105 103 113 101 101 94 133 152 173 162 142 141 152 160 129 121 126 117 107 145 169 164 264 340 338 153 202 184 173 162 169 163 158 162 169 173 176 193 190 179
295 333 353 3 3 357 8 7 3 354 5 10 9 10 7 11 19 21 24 21 20 22 27 31 37 36 39 47 40 43 41 40 41 42 74 115 113 109 91 90 93 103 111 99 95 108 142 163 135 143 158 82 58 79 178 170 188 204 222 287 269 239 173 163 154 154 161 171 168 167 174 182 196 198
5 359 0 3 5 4 6 12 6 358 359 10 17 13 13 21 19 26 30 18 16 22 25 23 25 30 44 48 50 49 40 40 16 44 63 87 87 90 102 99 78 69 86 100 81 58 31 121 138 137 121 128 116 85 48 18 222 154 196 200 215 220 179 160 148 150 162 161 168 173 190 186 181 187
20 8 5 7 8 5 5 3 2 4 10 8 10 11 14 20 22 17 23 16 37 32 33 27 21 17 21 35 42 46 44 42 33 32 45 60 78 82 75 79 83 75 62 79 82 60 64 76 114 131 130 127 130 168 137 54 49 153 191 208 169 122 132 150 167 156 167 161 166 175 193 198 189 177
19 14 14 14 8 8 7 2 3 3 5 7 5 16 15 18 7 13 20 18 37 43 42 44 37 25 25 22 43 54 49 40 45 42 54 49 56 69 78 64 67 63 70 47 57 69 66 58 29 72 96 120 117 111 73 98 42 22 8 178 154 153 158 153 161 162 164 165 177 197 203 204 184 164
24 15 16 16 11 7 7 8 7 9 7 8 7 8 9 5 6 4 5 15 29 36 31 40 30 28 29 20 21 24 36 29 42 55 43 50 67 63 65 73 61 65 65 55 53 57 53 73 60 36 45 99 110 61 73 41 66 34 22 6 112 127 140 152 157 162 162 188 184 195 212 207 196 176
29 24 21 18 12 10 11 10 10 9 7 10 14 12 10 12 12 7 7 6 9 16 23 27 29 16 16 17 21 21 18 14 31 39 52 54 58 74 77 74 77 50 71 68 59 56 65 69 61 53 70 89 112 125 117 12 29 0 23 21 22 116 126 171 128 127 221 226 183 117 146 96 80 103
33 30 24 20 18 15 16 11 12 11 13 13 15 13 13 14 13 14 13 8 9 1 10 15 14 10 13 9 6 13 25 25 20 23 33 62 70 82 78 83 95 107 97 100 93 71 85 116 139 140 119 79 103 113 126 116 184 292 58 48 37 36 40 156 135 161 176 195 175 208 210 187 182 161
31 29 25 19 16 12 11 11 10 11 10 9 11 13 17 16 18 18 19 12 12 13 15 13 13 12 15 8 13 24 33 36 37 13 3 25 72 73 104 105 93 93 127 132 122 112 182 235 77 80 86 99 93 123 96 82 50 351 21 34 33 42 40 29 14 109 110 118 230 224 157 152 145 153
26 30 27 23 19 13 11 9 6 6 8 7 10 8 11 17 26 10 16 16 16 17 20 19 21 13 12 7 4 6 49 21 16 45 39 355 342 92 114 142 139 154 139 159 182 196 183 78 117 102 107 108 117 82 69 169 207 200 94 4 23 72 65 60 56 32 7 147 142 97 88 63 9 196
24 26 26 21 21 17 15 12 8 6 3 3 6 6 9 13 14 16 19 15 14 17 17 16 17 20 15 7 5 16 26 22 15 17 353 350 318 271 205 201 191 182 197 190 161 157 103 150 172 143 150 166 172 205 193 181 168 121 133 149 87 36 77 88 81 78 47 40 53 59 31 73 109 126
23 21 23 20 20 19 18 19 16 13 11 10 7 9 13 12 16 16 14 13 12 12 11 14 13 18 20 18 12 14 18 8 347 337 317 307 302 300 288 249 210 212 195 237 30 341 200 191 192 184 177 191 183 190 176 155 160 158 141 125 132 141 121 124 130 127 132 144 96 145 185 227 240 120
26 24 23 20 21 22 19 16 17 16 16 15 16 14 13 16 15 13 14 13 11 5 8 14 13 10 5 8 14 17 14 11 1 358 357 354 342 326 352 20 119 131 135 118 147 235 241 239 210 197 207 190 186 193 175 182 160 156 144 149 144 136 123 131 137 140 125 129 70 77 83 122 158 5